Flag for United Kingdom Weather past 2 weeks in Stoke-on-Trent, England, United Kingdom

Now
45 °F

Drizzle. Broken clouds.


Feels Like: 40 °F
Forecast: 40 / 49 °F
Wind: 9 mph from North

Location: Manchester Airport

Current Time: Mar 29, 2015 at 12:33:15 PM

Latest Report: Mar 29, 2015 at 12:20 PM


Visibility: 3 mi

Pressure: 29.21 "Hg

Humidity: 93%

Dew point: 43 °F

Location of Stoke-on-TrentLocation

Historic Weather in Stoke-on-Trent — Graph

°F

Stoke-on-Trent temperature yesterday

Maximum temperature yesterday: 55 °F (at 11:50 AM)
Minimum temperature yesterday: 45 °F (at 12:20 AM)
Average temperature yesterday: 50 °F

Past Weeks' High & Low Weather Summary

 TemperatureHumidityPressure
High55 °F (Mar 28, 11:50 AM)100% (Mar 18, 12:50 AM)30.60 "Hg (Mar 18, 12:50 AM)
Low27 °F (Mar 18, 6:20 AM)50% (Mar 25, 1:50 PM)29.21 "Hg (Mar 29, 10:50 AM)
Average42 °F80%30.14 "Hg
* Reported Mar 14 10:20 AM — Mar 29 11:20 AM, Stoke-on-Trent, Weather by CustomWeather, © 2015

Note: Actual official high and low records may vary slightly from our data, if they occured in-between our weather recording intervals... More about our weather records

Advertising

Stoke-on-Trent weather history for previous 24 hours

 ConditionsComfort  
Time TempWeatherWind HumidityBarometerVisibility
11:20 AM
Sun, Mar 29
43 °FRain. Broken clouds.7 mph100%29.21 "Hg2 mi
10:50 AM43 °FDrizzle. Broken clouds.3 mph100%29.21 "Hg2 mi
10:20 AM43 °FDrizzle. Broken clouds.8 mph100%29.27 "Hg2 mi
9:50 AM43 °FDrizzle. Mostly cloudy.8 mph100%29.30 "Hg2 mi
9:20 AM43 °FLight rain. Broken clouds.7 mph100%29.33 "Hg3 mi
8:50 AM43 °FRain. Partly sunny.10 mph100%29.36 "Hg3 mi
8:20 AM43 °FRain. Partly sunny.8 mph93%29.39 "Hg4 mi
7:50 AM45 °FLight rain. Scattered clouds.14 mph87%29.42 "Hg5 mi
7:20 AM45 °FLight rain. Passing clouds.13 mph87%29.45 "HgN/A
6:50 AM45 °FPassing clouds.14 mph81%29.45 "HgN/A
6:20 AM45 °FQuite cool.14 mph81%29.45 "HgN/A
5:50 AM45 °FPassing clouds.17 mph81%29.47 "HgN/A
5:20 AM46 °FPassing clouds.10 mph76%29.47 "HgN/A
4:50 AM46 °FClear.14 mph76%29.47 "Hg10 mi
4:20 AM46 °FPassing clouds.14 mph76%29.50 "HgN/A
3:50 AM46 °FPassing clouds.16 mph76%29.53 "HgN/A
3:20 AM46 °FMostly cloudy.9 mph82%29.53 "HgN/A
2:50 AM48 °FPassing clouds.14 mph76%29.56 "HgN/A
2:20 AM48 °FPartly cloudy.26 mph71%29.56 "HgN/A
12:50 AM48 °FPartly cloudy.18 mph76%29.53 "HgN/A
12:20 AM48 °FPassing clouds.20 mph82%29.53 "HgN/A
11:50 PM
Sat, Mar 28
48 °FPassing clouds.21 mph87%29.53 "HgN/A
11:20 PM48 °FPassing clouds.22 mph87%29.53 "HgN/A
10:50 PM46 °FPassing clouds.18 mph93%29.53 "HgN/A
10:20 PM46 °FRain. Mostly cloudy.18 mph93%29.53 "Hg4 mi
9:50 PM48 °FLight rain. Partly cloudy.22 mph82%29.53 "HgN/A
9:20 PM48 °FLight rain. Passing clouds.18 mph82%29.56 "HgN/A
8:50 PM48 °FLight rain. Passing clouds.20 mph87%29.56 "HgN/A
8:20 PM48 °FPassing clouds.12 mph87%29.56 "HgN/A
7:50 PM48 °FSprinkles. Passing clouds.15 mph94%29.59 "HgN/A
7:20 PM50 °FLight rain. Passing clouds.13 mph94%29.59 "Hg4 mi
6:50 PM50 °FPassing clouds.14 mph94%29.59 "HgN/A
6:20 PM52 °FSleet. Partly sunny.10 mph88%29.59 "HgN/A
5:50 PM52 °FSprinkles. Partly sunny.14 mph88%29.59 "HgN/A
5:20 PM52 °FSprinkles. Partly sunny.18 mph88%29.56 "HgN/A
4:50 PM54 °FSleet. Broken clouds.20 mph82%29.56 "HgN/A
4:20 PM54 °FScattered showers. Partly sunny.18 mph88%29.56 "HgN/A
3:50 PM55 °FPartly sunny.16 mph77%29.56 "HgN/A
3:20 PM55 °FPartly sunny.18 mph77%29.59 "HgN/A
2:50 PM55 °FScattered showers. Broken clouds.17 mph77%29.59 "HgN/A
2:20 PM55 °FPartly sunny.20 mph77%29.59 "HgN/A
1:50 PM55 °FPartly sunny.22 mph82%29.59 "HgN/A
1:20 PM55 °FScattered clouds.18 mph82%29.59 "HgN/A
12:50 PM54 °FPartly sunny.15 mph94%29.62 "HgN/A
12:20 PM54 °FPartly sunny.18 mph88%29.62 "HgN/A
Weather by CustomWeather, © 2015

See weather overviewHow to use our weather pages